Orbital Elements at Epoch 2459200.5 (2020-Dec-17.0) TDB
Reference: JPL 18 (heliocentric ecliptic J2000)
Element | Value | Uncertainty (1-sigma) | Units |
e | .0930662987191079 | 4.3174e-08 | |
a | 2.655564600645992 | 1.6327e-08 | au |
q | 2.408421032254383 | 1.1281e-07 | au |
i | 9.335958789328156 | 4.6137e-06 | deg |
node | 148.063086180532 | 2.4867e-05 | deg |
peri | 186.5330015617266 | 3.4155e-05 | deg |
M | 221.7581089898044 | 2.5836e-05 | deg |
tp | 2459807.475131853194 (2022-Aug-15.97513185) | 0.00011603 | TDB |
period | 1580.642783966505 4.33 | 1.4577e-05 3.991e-08 | d yr |
n | .2277554445898313 | 2.1004e-09 | deg/d |
Q | 2.9027081690376 | 1.7846e-08 | au |
|
| | Orbit Determination Parameters
Additional Information
|